User: anonymous   Login
Location: Saint-Restitut
(44.3351°N, 4.7915°E)
Time: 22:08:24
(UTC+00:00)
Language:

Okean O Rocket - Orbit

View from above orbital plane
View from above orbital plane
View from above satellite
View from above satellite

Ground track
Ground track

The orbit data is extracted from the following two-line orbital elements,

1 25861U 99039B   24109.66848545  .00001647  00000-0  22489-3 0  9990
2 25861  98.0951 155.1792 0014569 335.9219  24.1309 14.79949182334736
Epoch (UTC): 18 April 2024 16:02:37
Eccentricity: 0.0014569
inclination: 98.0951°
perigee height: 619 km
apogee height: 639 km
right ascension of ascending node: 155.1792°
argument of perigee: 335.9219°
revolutions per day: 14.79949182
mean anomaly at epoch: 24.1309°
orbit number at epoch: 33473

The dashed part of the orbit path shows where the satellite is in the earth's shadow,  

DLR